Location: Burbank
(38.7788°N, 114.0429°W)
Time: 14:17:44
(UTC+00:00)

Vanguard 2 - Pass Details

Date: 17 May 2026
Orbit: 553 x 2894 km, 32.9° (Epoch: 6 June)

Event Time Altitude Azimuth Distance (km) Brightness Sun altitude
Rises 12:47:25 0° 275° (W) 6,733 11.8 3.7°
Reaches altitude 10° 12:52:03 10° 272° (W) 5,686 11.4 4.5°
Maximum altitude 13:08:40 61° 199° (SSW) 2,647 10.2 7.6°
Drops below altitude 10° 13:20:12 10° 122° (ESE) 4,085 11.9 9.7°
Sets 13:22:58 0° 119° (ESE) 4,801 12.3 10.2°
